EDT,Max TemperatureF,Mean TemperatureF,Min TemperatureF,Max Dew PointF,MeanDew PointF,Min DewpointF,Max Humidity, Mean Humidity, Min Humidity, Max Sea Level PressureIn, Mean Sea Level PressureIn, Min Sea Level PressureIn, Max VisibilityMiles, Mean VisibilityMiles, Min VisibilityMiles, Max Wind SpeedMPH, Mean Wind SpeedMPH, Max Gust SpeedMPH,PrecipitationIn, CloudCover, Events, WindDirDegrees
2013-6-1,85,76,66,66,64,63,93,74,55,29.98,29.89,29.76,10,10,10,22,11,32,0.02,7,,192
2013-6-2,77,68,58,66,61,55,100,74,47,29.91,29.82,29.75,10,9,2,29,12,37,0.88,6,Rain-Thunderstorm,242
2013-6-3,64,53,42,53,44,35,86,61,36,30.11,30.00,29.91,10,10,10,15,8,21,0.00,5,,352
2013-6-4,69,55,40,48,42,38,93,66,39,30.18,30.15,30.10,10,10,10,13,5,21,0.00,3,,355
2013-6-5,79,62,45,54,47,41,89,61,32,30.17,30.07,29.94,10,10,10,12,4,17,0.00,4,,59
2013-6-6,68,61,54,64,60,50,100,86,72,29.93,29.84,29.79,10,4,0,13,7,16,0.87,8,Fog-Rain-Thunderstorm,221
2013-6-7,62,58,54,56,54,52,100,89,78,29.89,29.85,29.82,10,5,0,16,8,20,T,8,Fog,343
2013-6-8,69,60,51,54,53,50,93,73,53,30.13,29.98,29.89,10,6,2,12,4,15,0.00,7,Fog,276
2013-6-9,78,64,50,59,55,49,100,75,49,30.18,30.11,30.01,10,9,4,14,7,17,0.00,7,Fog,107
2013-6-10,73,68,63,68,65,61,100,87,73,29.99,29.85,29.76,10,6,1,15,8,18,0.29,8,Rain,158
2013-6-11,75,69,62,63,61,60,100,82,64,29.89,29.84,29.77,10,8,2,17,8,23,T,7,Rain,276
2013-6-12,78,69,60,68,64,60,93,77,60,29.91,29.85,29.71,10,7,3,10,3,13,T,7,Rain-Thunderstorm,176
2013-6-13,71,63,54,67,61,54,97,89,81,29.84,29.65,29.50,10,9,2,25,12,36,0.53,7,Rain-Thunderstorm,291
2013-6-14,73,61,49,58,55,51,100,79,57,30.08,29.96,29.84,10,8,1,17,7,26,0.00,5,Fog,323
2013-6-15,77,62,46,58,50,45,100,67,33,30.14,30.07,30.00,10,9,7,16,4,21,T,4,Fog-Rain,247
2013-6-16,80,71,62,65,62,56,93,76,58,30.00,29.90,29.86,10,9,4,20,10,25,0.10,7,Rain-Thunderstorm,220
2013-6-17,82,72,61,65,60,54,100,70,39,29.97,29.93,29.91,10,8,0,18,6,24,0.00,5,Fog-Thunderstorm,235
2013-6-18,77,66,55,60,56,46,90,74,57,30.02,29.93,29.88,10,10,10,20,9,25,0.00,5,,29
2013-6-19,74,61,47,50,46,44,86,62,38,30.18,30.11,30.02,10,10,10,14,6,20,0.00,1,,34
2013-6-20,81,64,47,53,49,45,93,62,30,30.25,30.21,30.18,10,10,10,12,4,17,0.00,2,,44
2013-6-21,84,67,50,60,54,49,93,65,37,30.27,30.22,30.17,10,10,9,9,3,16,0.00,3,,160
2013-6-22,88,74,60,65,61,56,84,64,43,30.18,30.12,30.05,10,10,8,14,7,18,0.00,6,,186
2013-6-23,89,78,66,68,65,61,90,65,40,30.13,30.09,30.04,10,9,5,17,7,23,0.00,4,,203
2013-6-24,88,78,67,64,63,61,78,61,43,30.12,30.06,29.99,10,10,10,17,9,22,0.00,4,,227
2013-6-25,88,77,65,70,66,62,93,73,53,30.02,29.95,29.88,10,8,1,29,9,52,0.51,7,Rain-Thunderstorm,229
2013-6-26,82,74,65,68,66,64,93,78,62,29.93,29.88,29.81,10,8,2,15,6,21,0.19,7,Rain-Thunderstorm,201
2013-6-27,77,71,64,67,66,62,100,85,69,29.80,29.73,29.66,10,6,0,17,5,21,1.71,7,Rain,10
2013-6-28,80,71,61,66,64,60,100,79,58,29.65,29.58,29.51,10,6,0,17,7,22,0.01,7,Fog-Rain,249
2013-6-29,77,69,60,64,62,59,100,82,64,29.70,29.60,29.53,10,8,2,9,6,,0.25,7,Fog-Rain-Thunderstorm,279
2013-6-30,79,70,60,66,63,60,100,81,62,29.88,29.79,29.70,10,9,4,17,6,22,0.01,6,Fog,33